Wetbulb
55.60 54.53 54.45 55.19 55.18 55.43 55.44 55.29 55.01 55.19 55.73 56.04 56.09 55.98 55.58 55.44 55.47 55.65 55.88 56.08 56.40 57.29 58.37 58.59 58.56 58.44 56.20 50.58 50.17 59.37 58.94 58.55 56.65 55.43 52.98 51.30 49.09 48.69 46.39 47.64 48.45 46.86 48.13 48.18 48.87 48.46 48.42
54.65 53.95 54.41 54.50 54.80 54.58 54.71 54.92 54.79 54.76 55.09 55.44 55.52 55.27 55.02 54.93 55.09 55.19 55.33 55.48 56.20 57.65 58.28 58.10 57.87 57.33 53.63 45.46 55.99 59.27 55.79 55.46 55.04 54.17 52.50 52.67 50.15 50.18 47.46 46.52 46.09 48.56 47.74 47.98 48.88 48.57 48.67
53.72 53.40 53.64 54.08 54.00 53.90 54.23 54.38 54.26 54.29 54.64 54.99 55.01 54.73 54.51 54.57 54.99 55.29 55.35 55.75 56.73 57.65 56.98 56.89 57.29 55.31 50.13 48.90 56.51 56.95 55.56 54.76 56.03 54.41 51.47 53.39 52.83 49.39 50.00 46.98 49.69 48.27 45.04 47.24 48.11 48.33 46.97
52.70 52.93 53.11 53.36 53.46 53.66 53.76 53.65 53.61 53.94 54.31 54.54 54.45 54.19 54.06 54.34 54.91 55.55 55.93 56.25 56.69 56.67 55.96 56.37 55.98 53.28 47.07 54.38 58.42 55.32 55.57 54.31 56.23 56.22 54.64 54.75 53.58 50.59 48.72 49.68 47.36 44.59 45.20 41.40 46.51 47.15 47.27
52.80 52.44 52.47 52.46 53.04 53.41 53.40 53.42 53.46 53.55 53.82 53.92 53.86 53.81 54.18 54.49 55.00 55.58 55.68 55.97 56.24 55.77 55.71 55.27 54.13 51.73 46.62 54.80 52.19 54.79 55.60 51.94 53.56 54.54 54.78 54.23 52.96 49.33 48.40 44.49 42.68 43.75 39.06 41.51 43.27 47.13 46.14
52.29 51.83 51.54 52.04 52.77 52.87 53.03 53.19 53.07 53.19 53.47 53.46 53.33 53.59 54.25 54.73 55.15 55.58 54.04 53.92 54.25 54.97 54.64 54.34 51.25 48.20 48.75 47.80 51.90 53.04 55.08 53.55 50.93 50.76 49.80 50.24 49.25 45.74 45.68 43.11 36.59 39.38 39.99 40.95 40.35 43.95 44.22
51.65 51.19 51.39 51.96 52.16 52.35 52.60 52.65 52.63 52.85 53.00 52.81 52.91 53.45 54.30 54.76 54.93 54.87 53.24 51.40 50.06 48.81 50.11 45.20 45.42 44.16 46.17 51.00 52.52 51.32 53.31 51.52 50.57 47.95 43.27 46.46 42.84 41.23 43.65 44.69 43.68 41.48 39.69 39.09 42.26 45.04 41.85
51.05 51.00 51.45 51.62 51.69 51.89 52.01 52.11 52.27 52.46 52.48 52.34 52.61 53.28 54.30 54.73 54.36 54.68 54.52 49.38 47.51 48.86 43.78 47.53 47.96 47.81 48.44 49.72 45.45 48.44 52.54 46.45 45.29 42.66 44.44 43.01 40.84 44.18 43.38 42.81 41.72 41.26 39.64 39.64 42.55 43.90 42.46
50.28 50.72 51.18 51.22 51.47 51.36 51.33 51.56 51.96 52.23 52.09 51.88 52.19 53.17 54.12 53.90 53.25 53.78 51.02 48.90 52.88 51.36 45.15 45.49 47.41 47.13 47.28 48.76 45.28 45.70 49.38 46.89 44.13 42.13 42.70 40.66 42.54 43.59 42.06 41.42 39.99 40.62 39.12 39.11 38.65 41.30 42.42
49.79 50.45 50.50 50.87 50.79 50.75 50.98 51.26 51.50 51.65 51.52 51.40 51.97 52.95 53.84 52.88 50.93 52.00 48.50 51.08 52.96 52.46 41.07 40.75 44.23 46.82 48.24 47.39 43.95 49.55 50.11 46.93 44.36 41.11 42.12 41.23 43.76 41.10 40.62 40.00 41.18 36.47 41.38 40.22 38.91 37.13 32.67
49.41 49.57 50.00 50.27 50.13 50.22 50.58 50.88 51.15 51.21 51.10 51.07 51.76 52.82 52.79 52.33 51.05 48.82 48.76 51.92 53.08 49.83 33.32 41.36 43.95 50.08 46.23 44.38 44.72 45.84 50.16 47.25 41.53 41.39 40.85 39.26 39.67 39.67 38.79 39.56 41.38 37.84 41.22 39.51 38.78 36.34 35.68
49.22 48.70 49.26 49.60 49.49 49.79 50.09 50.35 50.66 50.76 50.80 50.86 51.48 52.48 51.87 51.08 51.61 49.70 51.78 52.24 50.31 40.61 34.80 38.36 42.42 40.66 40.52 41.43 42.68 45.76 45.93 48.01 46.26 41.13 42.13 41.04 44.77 41.41 40.83 42.10 41.56 42.04 39.03 38.64 38.43 36.16 28.50
48.67 48.25 48.44 48.50 49.07 49.27 49.59 49.89 50.10 50.39 50.45 50.63 51.10 51.46 50.37 49.14 46.35 50.37 52.27 49.27 39.46 34.70 37.87 36.21 37.72 39.78 38.45 37.63 39.36 39.60 39.69 37.85 36.34 33.44 34.91 38.12 38.85 41.35 41.32 37.70 41.17 39.42 35.81 28.94 27.56 28.71 26.52
48.27 47.88 47.72 47.83 48.52 48.81 49.15 49.45 49.68 49.92 49.90 50.38 50.39 49.43 48.98 46.30 49.48 51.78 48.54 41.51 33.28 34.27 35.28 39.30 38.49 38.13 34.92 37.09 36.91 36.52 37.56 35.99 36.19 34.60 33.35 31.60 30.77 37.53 40.99 38.92 36.26 36.99 36.30 29.86 21.72 24.34 28.20
48.24 47.21 46.81 47.46 48.00 48.31 48.69 49.03 49.28 49.29 49.50 49.89 48.78 51.62 49.58 46.39 49.94 51.38 44.36 36.85 36.64 35.95 37.73 36.61 37.77 34.19 34.58 35.82 35.72 35.56 33.24 32.64 32.18 33.65 29.71 29.58 31.19 38.48 38.65 38.60 38.19 34.71 32.05 36.37 29.41 31.32 26.88
48.04 46.65 46.63 47.05 47.48 47.78 48.08 48.48 48.78 48.82 49.16 49.00 50.24 48.41 47.16 46.40 50.12 47.19 41.07 37.01 36.88 38.04 37.84 37.48 33.38 34.68 32.84 34.29 33.61 34.25 32.86 30.98 30.40 33.56 35.49 32.27 25.05 35.00 35.57 37.87 38.47 35.24 36.02 27.31 29.44 19.87 18.52
47.39 46.23 46.43 46.73 46.92 47.14 47.51 47.87 48.07 48.22 48.62 47.71 48.98 43.84 46.23 47.34 49.02 44.00 37.32 38.00 36.74 37.13 38.24 36.12 34.91 33.98 33.95 32.63 32.94 32.76 31.25 29.52 31.53 31.05 33.48 31.29 29.57 29.68 33.47 31.12 28.73 29.12 27.90 28.53 25.88 24.95 19.28
47.49 46.11 45.99 46.42 46.41 46.62 46.82 47.19 47.22 47.52 47.28 45.11 46.49 39.64 45.35 47.84 41.66 41.82 39.08 37.21 35.05 34.96 37.40 36.80 36.69 34.57 33.07 32.87 31.69 31.68 30.50 29.30 32.03 31.37 27.30 29.94 27.23 22.49 26.08 31.72 32.85 29.93 25.31 24.45 16.57 15.58 19.27
46.86 45.73 45.62 45.83 46.07 46.22 46.43 46.27 46.51 46.69 45.36 47.04 42.64 42.68 45.98 45.78 37.18 37.26 35.05 32.15 33.12 33.13 31.59 33.21 31.62 32.48 33.08 31.34 27.27 29.66 29.90 31.60 31.77 29.02 26.42 28.71 24.26 18.24 23.07 26.24 29.13 24.79 25.35 25.15 23.96 22.17 15.58
46.57 45.57 45.06 45.47 45.99 45.97 46.02 45.55 45.83 45.42 44.13 45.18 42.14 38.61 40.40 41.47 38.64 37.62 34.56 32.89 29.11 32.15 30.30 31.08 29.67 31.10 29.45 27.92 29.95 27.36 27.56 29.17 30.13 28.66 29.55 28.37 23.73 20.24 15.80 19.96 23.29 20.19 22.59 24.40 22.39 15.71 16.15
46.30 45.41 44.71 45.44 45.93 45.85 45.49 45.18 45.22 43.95 42.66 43.68 40.87 37.00 34.93 35.94 34.87 34.72 34.47 32.25 28.92 26.95 30.41 31.11 27.95 27.77 26.33 24.12 24.66 24.08 25.87 26.65 28.17 28.85 28.54 26.45 19.28 22.17 22.43 23.33 23.30 22.15 21.86 21.80 18.95 19.20 13.36
46.04 45.00 44.89 45.26 45.50 45.36 44.99 44.90 44.48 43.00 41.67 41.81 38.63 36.48 36.10 32.37 31.91 32.34 29.35 28.63 28.66 25.93 27.87 25.87 26.20 25.99 26.34 24.28 25.06 22.79 24.06 24.48 23.94 27.42 25.38 26.50 19.74 21.88 18.31 23.29 23.10 20.33 21.79 21.06 20.25 18.77 17.66
45.44 44.69 44.92 45.12 45.01 44.96 44.68 44.44 44.11 42.45 41.30 40.35 37.77 37.07 38.54 29.05 30.10 30.35 29.01 27.83 26.89 28.41 27.93 29.01 27.49 26.35 24.42 26.05 28.71 29.59 29.93 29.32 28.09 25.19 23.91 23.16 21.82 19.06 14.19 21.62 20.62 16.11 17.39 18.38 18.78 19.57 15.49
44.98 44.62 45.26 44.47 44.67 44.77 44.80 44.31 43.89 42.57 41.67 40.74 37.23 37.11 34.65 27.37 30.40 28.51 27.49 27.51 26.43 26.56 26.26 27.65 28.60 26.17 28.77 32.97 32.48 31.27 29.46 28.26 28.20 27.41 28.14 22.82 21.74 20.47 14.67 17.90 6.81 17.45 22.19 20.02 17.11 18.62 17.19
45.14 45.08 44.88 44.26 44.18 44.77 45.26 44.30 43.74 42.98 41.23 37.81 36.52 36.12 34.03 26.95 28.90 26.91 27.06 26.90 27.54 28.43 26.64 27.04 28.50 30.79 33.14 29.95 24.87 22.40 22.55 22.55 24.14 26.48 26.17 26.78 22.73 17.09 12.64 12.55 17.47 17.34 16.82 15.47 13.29 13.69 16.47
45.11 44.85 44.61 44.62 43.91 44.78 45.29 44.44 43.75 43.13 41.66 39.11 36.22 37.88 36.12 29.69 26.35 30.12 27.64 28.17 26.33 26.19 25.37 26.83 30.78 33.24 31.51 27.29 23.44 16.78 16.34 19.08 17.85 20.86 26.66 25.90 25.09 18.46 15.48 8.99 6.11 14.40 18.70 22.58 19.15 10.37 17.16
45.15 44.95 45.08 44.48 44.00 45.13 44.86 44.55 43.67 42.72 42.14 40.29 37.40 38.63 36.54 28.56 29.62 30.81 28.05 26.73 29.33 27.35 26.08 26.67 27.01 27.74 30.35 24.93 20.43 18.65 17.85 21.65 15.36 15.70 17.57 18.59 19.08 14.73 14.42 11.85 14.39 16.27 19.70 22.19 8.48 9.84 17.22
45.06 45.22 44.87 44.25 43.92 44.57 44.82 44.35 43.76 42.95 41.91 40.27 36.91 39.44 37.04 31.13 30.11 32.06 31.66 28.86 28.55 29.08 25.13 26.98 25.98 26.52 26.13 21.30 20.90 21.17 18.72 21.09 18.64 21.18 18.47 16.41 14.56 14.39 15.50 11.10 6.96 19.59 20.37 11.60 14.94 18.09 18.01
44.70 44.23 44.12 43.88 43.77 44.07 44.50 43.86 43.27 42.76 42.02 41.52 35.51 38.94 39.91 34.21 30.95 35.08 34.03 34.70 33.76 32.81 30.51 29.52 26.57 25.70 27.49 23.73 23.62 23.18 19.43 21.70 19.56 13.45 21.37 14.37 16.39 13.78 15.45 15.43 19.47 20.40 19.25 19.74 19.73 17.00 17.40
MSLP
1021.91 1021.96 1021.89 1021.74 1021.63 1021.51 1021.37 1021.14 1020.80 1020.42 1020.01 1019.74 1019.38 1019.08 1018.69 1018.31 1017.91 1017.57 1017.23 1016.88 1016.49 1016.10 1015.84 1015.64 1015.49 1015.31 1014.99 1014.06 1014.04 1014.23 1014.34 1014.06 1013.72 1013.48 1013.06 1012.58 1012.04 1011.59 1011.12 1010.94 1011.30 1010.99 1010.38 1010.77 1010.84 1011.11 1011.01
1022.13 1022.12 1021.96 1021.77 1021.57 1021.44 1021.30 1021.04 1020.72 1020.32 1019.90 1019.58 1019.21 1018.99 1018.63 1018.23 1017.80 1017.41 1017.03 1016.73 1016.36 1015.99 1015.69 1015.52 1015.39 1015.28 1014.52 1014.16 1014.62 1014.38 1014.33 1014.11 1013.86 1013.45 1013.17 1012.86 1012.52 1012.38 1011.70 1011.46 1011.54 1011.27 1011.16 1010.89 1010.84 1010.99 1011.07
1022.02 1021.91 1021.86 1021.78 1021.66 1021.39 1021.08 1020.83 1020.58 1020.24 1019.82 1019.37 1019.00 1018.76 1018.40 1018.06 1017.70 1017.23 1016.86 1016.53 1016.21 1015.87 1015.63 1015.44 1015.27 1014.69 1014.04 1014.81 1014.56 1014.43 1014.27 1014.23 1014.13 1013.81 1013.35 1013.55 1013.32 1012.81 1012.28 1011.62 1011.74 1011.52 1011.10 1010.18 1010.21 1010.73 1010.95
1021.94 1021.87 1021.89 1021.82 1021.74 1021.47 1021.09 1020.65 1020.33 1020.04 1019.70 1019.29 1018.91 1018.52 1018.11 1017.74 1017.48 1017.09 1016.67 1016.36 1016.07 1015.74 1015.49 1015.33 1015.12 1014.38 1014.28 1014.91 1014.59 1014.44 1014.32 1014.22 1014.26 1014.12 1013.99 1013.97 1013.59 1012.98 1012.58 1012.37 1011.78 1011.22 1010.70 1009.68 1009.69 1010.57 1011.14
1021.95 1021.98 1021.90 1021.79 1021.65 1021.44 1021.17 1020.78 1020.37 1019.98 1019.53 1019.16 1018.81 1018.36 1017.93 1017.53 1017.13 1016.81 1016.51 1016.15 1015.85 1015.64 1015.45 1015.25 1014.77 1014.16 1014.35 1014.93 1014.65 1014.73 1014.50 1014.22 1014.30 1014.28 1014.26 1014.10 1013.71 1012.84 1012.59 1011.78 1010.86 1010.41 1009.55 1009.06 1009.33 1010.28 1010.55
1022.04 1022.01 1022.03 1021.85 1021.65 1021.46 1021.18 1020.83 1020.42 1019.96 1019.59 1019.20 1018.75 1018.30 1017.79 1017.29 1016.95 1016.49 1016.09 1015.93 1015.73 1015.62 1015.14 1014.71 1014.49 1014.34 1014.72 1014.75 1014.80 1014.84 1014.64 1014.55 1014.25 1014.18 1014.05 1013.77 1013.18 1012.49 1011.86 1011.06 1009.76 1009.06 1008.91 1008.86 1009.29 1009.88 1010.35
1022.51 1022.35 1022.12 1021.85 1021.72 1021.51 1021.24 1020.89 1020.48 1020.10 1019.66 1019.20 1018.78 1018.38 1017.92 1017.32 1016.80 1016.37 1015.76 1015.63 1015.76 1015.33 1014.78 1015.24 1015.18 1014.82 1014.76 1014.97 1015.06 1014.81 1014.70 1014.46 1014.22 1013.97 1013.21 1013.25 1012.60 1011.38 1010.67 1010.61 1010.30 1010.19 1009.72 1009.28 1009.11 1009.24 1009.82
1022.80 1022.61 1022.29 1021.98 1021.73 1021.50 1021.25 1020.97 1020.51 1019.96 1019.59 1019.24 1018.83 1018.32 1017.87 1017.34 1016.86 1016.29 1015.84 1015.79 1017.25 1017.57 1016.12 1015.64 1015.40 1015.16 1015.26 1015.28 1014.80 1014.86 1014.96 1014.46 1013.94 1013.23 1013.15 1013.03 1011.76 1011.16 1011.71 1011.61 1011.25 1010.64 1009.97 1009.31 1009.04 1009.21 1009.62
1022.92 1022.76 1022.55 1022.22 1021.85 1021.61 1021.21 1020.86 1020.53 1020.02 1019.52 1019.15 1018.76 1018.35 1017.82 1017.22 1016.68 1016.31 1016.55 1017.53 1017.75 1017.54 1016.21 1015.65 1015.36 1015.13 1015.31 1015.32 1014.93 1015.10 1015.04 1014.55 1013.88 1013.31 1012.86 1012.45 1011.75 1012.16 1011.94 1011.62 1011.26 1010.57 1010.03 1009.46 1009.31 1009.37 1009.47
1022.86 1022.83 1022.72 1022.38 1022.01 1021.67 1021.36 1020.90 1020.51 1020.05 1019.55 1019.18 1018.72 1018.21 1017.74 1017.19 1017.18 1016.97 1017.32 1017.98 1017.82 1017.63 1016.27 1015.75 1015.11 1015.29 1015.27 1015.28 1015.22 1015.43 1015.30 1015.26 1014.20 1013.84 1013.40 1012.60 1012.45 1012.72 1012.19 1011.68 1011.18 1010.43 1010.20 1009.87 1010.12 1010.32 1009.35
1022.61 1022.78 1022.74 1022.47 1022.10 1021.71 1021.40 1020.97 1020.57 1020.07 1019.58 1019.20 1018.71 1018.21 1017.76 1017.06 1017.07 1017.26 1018.28 1018.12 1017.91 1017.52 1016.52 1015.92 1015.20 1015.43 1015.28 1015.30 1015.47 1015.44 1015.66 1015.14 1014.63 1014.19 1014.40 1012.69 1012.87 1012.94 1012.51 1011.85 1011.75 1011.11 1011.37 1011.16 1011.01 1010.71 1010.05
1022.49 1022.52 1022.55 1022.51 1022.20 1021.74 1021.31 1020.93 1020.56 1020.13 1019.63 1019.16 1018.69 1018.22 1017.72 1017.31 1017.22 1018.31 1018.22 1018.08 1017.82 1017.26 1016.03 1015.63 1015.43 1015.48 1015.15 1015.20 1015.24 1015.32 1015.40 1015.50 1015.47 1015.08 1014.40 1013.65 1013.53 1013.80 1012.84 1012.53 1012.60 1012.24 1012.14 1011.59 1011.36 1011.36 1009.88
1022.54 1022.49 1022.42 1022.29 1022.04 1021.77 1021.36 1020.89 1020.47 1020.03 1019.71 1019.34 1018.81 1018.34 1017.72 1017.77 1018.05 1018.28 1018.11 1017.70 1017.07 1016.27 1016.24 1016.09 1015.80 1015.85 1015.77 1015.57 1015.53 1015.73 1015.84 1016.19 1016.34 1016.06 1014.76 1014.05 1013.37 1013.50 1014.01 1013.25 1012.62 1013.13 1012.73 1011.69 1010.85 1010.39 1008.94
1022.44 1022.55 1022.41 1022.14 1022.00 1021.71 1021.31 1020.93 1020.35 1019.95 1019.53 1019.25 1018.96 1018.53 1018.37 1018.23 1018.20 1018.21 1017.85 1017.14 1016.59 1016.39 1016.16 1016.52 1016.25 1016.01 1015.93 1016.30 1016.23 1016.33 1016.45 1016.89 1018.24 1018.25 1016.84 1015.36 1014.26 1014.38 1014.64 1014.32 1014.07 1013.65 1013.29 1012.82 1011.25 1010.33 1009.15
1022.34 1022.33 1022.42 1022.09 1021.78 1021.61 1021.24 1020.90 1020.43 1019.82 1019.49 1019.00 1018.93 1018.21 1017.90 1018.02 1018.15 1018.06 1017.17 1016.62 1016.53 1016.84 1017.28 1016.99 1016.49 1016.31 1016.21 1016.64 1017.03 1016.93 1017.97 1018.84 1019.97 1019.99 1019.24 1017.69 1015.66 1015.39 1015.41 1015.71 1015.50 1014.03 1014.27 1014.35 1013.47 1012.45 1011.20
1022.30 1022.32 1022.26 1021.97 1021.74 1021.39 1021.10 1020.72 1020.31 1019.83 1019.36 1019.07 1018.41 1018.00 1017.98 1018.15 1017.87 1017.67 1016.92 1016.68 1017.45 1018.22 1018.37 1017.93 1017.20 1017.08 1016.55 1017.02 1017.35 1017.58 1018.63 1021.04 1021.41 1021.65 1021.18 1019.97 1018.29 1016.47 1016.89 1016.38 1015.76 1016.09 1016.61 1015.67 1015.09 1013.93 1012.26
1022.13 1022.28 1022.25 1021.98 1021.58 1021.21 1020.99 1020.65 1020.19 1019.67 1019.47 1019.24 1018.38 1017.86 1018.04 1018.29 1017.98 1016.95 1016.80 1017.43 1018.50 1019.39 1019.44 1019.13 1018.40 1018.15 1018.14 1018.34 1018.78 1019.03 1020.14 1022.28 1022.64 1022.67 1022.41 1021.78 1020.44 1017.89 1017.67 1017.28 1017.61 1017.78 1017.85 1018.44 1018.81 1017.34 1015.64
1021.77 1022.10 1022.17 1022.15 1021.64 1021.07 1020.75 1020.49 1020.09 1019.63 1019.37 1019.55 1018.39 1017.75 1018.23 1018.05 1017.60 1017.23 1017.32 1018.77 1020.04 1020.08 1020.23 1020.22 1020.06 1019.84 1019.73 1019.90 1019.77 1020.50 1021.37 1022.86 1023.73 1023.63 1023.03 1022.97 1021.97 1019.80 1018.72 1018.50 1018.91 1019.95 1020.56 1021.03 1021.14 1020.15 1019.79
1021.65 1022.04 1022.05 1022.12 1021.73 1021.29 1020.65 1020.40 1019.94 1019.43 1019.26 1018.77 1017.80 1017.65 1018.09 1017.92 1017.06 1017.29 1019.00 1020.04 1020.95 1020.96 1021.42 1021.37 1021.57 1021.83 1021.79 1021.38 1021.56 1021.88 1022.72 1024.05 1024.36 1024.38 1024.13 1023.72 1022.68 1021.32 1019.12 1019.83 1020.23 1020.94 1021.97 1022.47 1022.65 1022.54 1021.84
1021.32 1021.88 1022.12 1022.12 1021.82 1021.39 1020.85 1020.32 1019.82 1019.45 1019.36 1019.11 1018.06 1017.69 1018.10 1018.00 1018.19 1017.68 1018.66 1019.87 1021.63 1022.59 1022.58 1022.67 1022.78 1022.79 1022.72 1022.66 1022.84 1022.77 1023.45 1024.47 1024.99 1025.07 1025.31 1025.06 1024.03 1023.34 1022.52 1021.98 1022.48 1022.50 1022.93 1023.03 1023.34 1023.38 1022.98
1021.22 1021.53 1021.93 1022.11 1021.84 1021.58 1021.03 1020.46 1019.79 1019.55 1019.46 1019.28 1018.40 1018.43 1019.33 1018.47 1018.70 1019.00 1019.45 1020.49 1021.73 1022.75 1023.30 1023.35 1023.47 1023.53 1023.63 1023.45 1023.60 1023.68 1024.28 1024.70 1025.14 1025.76 1025.62 1025.51 1024.81 1024.22 1024.08 1023.68 1023.45 1023.30 1023.36 1023.82 1024.51 1024.98 1025.37
1021.22 1021.40 1021.52 1021.91 1021.90 1021.64 1021.27 1020.65 1019.84 1019.70 1019.54 1019.14 1018.99 1019.01 1019.80 1020.19 1020.14 1020.25 1020.91 1021.63 1022.23 1023.52 1023.76 1024.09 1023.88 1024.35 1024.37 1024.21 1024.23 1024.34 1024.89 1025.07 1025.15 1025.63 1025.78 1025.78 1025.09 1024.83 1024.60 1023.93 1023.84 1023.87 1024.24 1024.94 1025.54 1026.45 1026.88
1021.32 1021.36 1021.55 1021.86 1021.95 1021.77 1021.33 1020.94 1020.19 1019.60 1019.78 1019.36 1020.34 1020.04 1019.34 1021.01 1020.96 1021.23 1022.00 1022.57 1023.19 1023.93 1024.78 1024.64 1024.78 1024.89 1025.15 1025.36 1025.55 1025.44 1025.53 1025.54 1025.59 1025.75 1025.68 1025.87 1025.43 1025.14 1024.70 1024.35 1024.48 1024.55 1025.95 1026.35 1026.90 1027.60 1028.67
1021.14 1021.70 1021.70 1021.95 1022.00 1021.78 1021.41 1020.99 1020.54 1020.19 1019.63 1019.85 1020.62 1019.75 1019.81 1021.02 1021.46 1022.20 1022.96 1023.47 1024.12 1024.62 1024.73 1025.36 1025.48 1025.47 1026.26 1026.25 1025.86 1025.60 1025.69 1025.59 1025.62 1025.74 1025.95 1025.78 1025.67 1025.53 1025.19 1025.24 1025.06 1026.09 1026.93 1027.56 1028.06 1028.30 1029.45
1021.37 1021.88 1022.01 1022.19 1022.13 1021.86 1021.48 1021.45 1021.11 1020.70 1020.14 1020.55 1021.39 1020.66 1020.27 1021.41 1022.41 1023.39 1023.85 1024.15 1024.82 1025.21 1025.61 1025.65 1026.12 1026.57 1026.74 1026.33 1025.41 1024.71 1024.77 1025.19 1025.03 1025.22 1025.60 1025.98 1026.03 1025.66 1025.58 1025.55 1025.67 1026.90 1028.06 1028.66 1029.13 1029.17 1030.30
1021.42 1021.85 1022.19 1022.48 1022.28 1022.08 1021.61 1021.89 1021.76 1021.13 1020.93 1021.23 1022.14 1021.89 1021.12 1021.66 1023.41 1023.60 1024.33 1024.65 1024.85 1025.15 1025.81 1026.22 1026.73 1026.80 1026.70 1025.99 1025.36 1024.62 1024.06 1024.37 1024.69 1025.01 1025.66 1025.86 1026.36 1026.87 1026.40 1026.50 1026.67 1028.00 1028.92 1029.20 1029.78 1029.91 1030.71
1021.11 1021.71 1022.25 1022.68 1022.47 1022.31 1022.20 1021.95 1021.99 1022.01 1021.78 1021.55 1022.55 1022.60 1021.81 1022.91 1024.88 1024.88 1024.82 1025.07 1025.56 1025.62 1025.56 1026.47 1026.66 1026.87 1026.90 1025.86 1025.31 1024.95 1024.68 1025.32 1025.21 1025.37 1025.71 1025.91 1026.34 1026.63 1026.66 1026.88 1027.73 1029.30 1029.54 1029.42 1030.48 1031.23 1030.90
1021.07 1021.68 1022.40 1022.78 1022.73 1022.73 1022.45 1022.19 1022.47 1022.45 1022.43 1022.09 1023.22 1022.92 1022.29 1023.72 1025.62 1025.80 1026.10 1026.03 1026.27 1026.16 1025.99 1026.89 1027.19 1027.05 1026.50 1025.99 1025.91 1025.59 1025.59 1025.41 1025.92 1025.73 1026.58 1027.03 1027.32 1027.21 1027.34 1027.80 1028.81 1030.08 1029.46 1030.86 1031.65 1031.50 1031.47
1021.44 1021.72 1022.47 1022.96 1022.88 1022.93 1022.77 1022.84 1022.82 1022.99 1022.76 1022.45 1023.07 1023.54 1023.41 1024.03 1026.28 1026.72 1027.22 1027.53 1027.00 1027.13 1026.83 1027.22 1027.26 1027.29 1027.20 1026.79 1026.61 1026.36 1026.20 1026.18 1026.31 1026.77 1027.75 1028.63 1029.61 1029.82 1029.58 1029.03 1030.26 1030.97 1031.06 1031.95 1032.21 1032.19 1031.83
Wind_Speed
8 6 7 9 10 11 12 12 13 14 15 16 16 16 16 16 16 16 15 15 15 15 14 11 9 8 5 4 4 3 5 6 4 3 3 3 5 3 6 2 3 8 5 4 6 5 7
6 6 7 7 8 10 11 13 14 14 15 16 16 17 17 17 16 15 15 14 14 14 11 7 7 7 5 4 4 3 5 3 6 4 2 4 3 4 5 4 6 6 6 9 6 9 7
4 4 5 7 8 8 9 11 13 14 15 15 16 17 17 17 17 16 15 14 13 12 7 5 4 5 3 5 3 4 1 3 5 4 2 4 4 4 3 3 1 4 8 7 11 10 6
2 3 5 7 8 9 10 10 11 13 15 15 16 16 16 16 17 16 14 12 11 7 4 3 4 4 3 2 3 1 2 2 3 4 4 2 2 1 3 2 4 6 4 7 7 7 3
3 2 4 6 8 10 11 12 13 13 14 14 16 16 16 16 16 15 15 11 6 4 3 4 5 4 4 1 0 3 4 2 1 1 2 1 4 3 4 5 8 7 9 10 4 7 2
2 1 3 5 8 10 11 13 13 14 15 16 16 15 15 15 15 15 9 4 2 5 5 3 2 4 3 2 2 2 1 1 2 2 3 4 5 7 7 8 8 9 7 8 9 6 7
1 2 4 6 8 10 12 13 14 15 16 16 16 16 16 16 14 11 6 4 5 5 7 5 4 2 1 2 2 1 2 3 3 5 5 3 7 9 9 7 10 9 11 13 13 11 5
3 4 6 8 9 10 12 14 14 14 15 16 17 16 15 15 12 10 5 4 4 4 1 2 1 0 1 3 1 2 3 3 3 5 2 5 9 4 2 3 8 10 12 14 13 9 9
2 5 7 9 10 11 12 13 14 15 15 15 15 16 16 15 6 3 8 5 4 2 4 3 2 2 3 3 4 4 4 3 4 5 5 9 6 3 3 6 9 12 14 16 18 15 12
2 5 7 9 11 12 13 14 14 15 15 15 15 14 15 15 2 2 4 4 3 2 4 3 2 2 1 2 2 2 2 4 3 5 7 9 3 6 8 10 10 16 13 15 13 9 11
2 3 7 9 11 12 14 15 16 16 15 15 15 13 11 11 2 2 4 4 1 3 3 4 3 2 2 3 2 3 1 3 5 7 3 3 4 7 10 14 10 11 6 7 12 15 18
3 1 5 9 11 12 13 15 16 16 16 14 13 11 7 0 3 3 4 1 3 3 5 3 1 2 3 1 1 1 1 2 2 6 8 16 8 5 10 9 8 13 10 15 14 11 13
3 1 4 7 9 12 14 14 15 16 15 15 11 7 4 2 3 4 2 3 2 4 2 2 1 3 4 3 0 4 4 7 5 7 4 6 13 3 4 10 9 7 10 6 8 10 13
4 1 4 6 9 11 13 15 15 16 14 14 9 5 3 5 2 3 2 4 5 2 1 1 1 5 3 5 2 2 3 2 9 8 9 5 3 2 5 5 8 11 10 11 16 15 16
5 1 3 5 8 11 13 15 16 15 14 11 6 2 1 4 1 2 4 3 4 3 2 3 3 4 4 3 4 2 4 4 6 9 5 7 4 2 6 8 8 7 10 11 14 19 19
6 2 3 5 7 10 13 14 16 16 13 7 3 2 0 6 1 3 4 1 1 3 3 2 4 1 3 1 4 3 3 4 3 7 6 4 11 1 6 10 3 3 13 9 11 19 26
6 3 3 5 7 10 13 15 15 14 12 5 3 4 4 4 3 4 3 3 4 4 3 4 3 3 2 3 3 3 5 4 3 6 4 5 6 5 16 5 11 15 11 11 9 12 16
8 4 2 6 8 9 11 14 15 12 8 6 1 3 3 1 4 2 2 3 2 2 4 2 2 3 3 1 3 3 2 4 4 4 5 4 7 11 19 19 1 9 7 9 6 10 13
8 3 1 5 7 10 11 14 16 9 3 2 3 1 2 3 4 4 4 4 4 1 4 3 3 5 2 0 4 2 2 5 4 6 4 4 5 10 9 9 12 10 14 12 13 13 17
9 4 2 5 8 10 12 14 15 6 3 4 2 2 2 2 2 2 5 4 4 4 4 4 3 1 1 2 1 1 3 2 3 5 2 3 5 9 10 14 14 16 15 13 12 10 14
10 6 3 5 8 10 12 15 14 3 2 4 1 2 3 1 3 3 1 4 6 4 3 1 3 1 0 3 4 4 1 3 0 2 3 4 7 6 10 13 14 14 15 11 9 8 8
9 7 5 4 7 10 12 16 14 2 2 1 2 3 3 3 3 4 0 2 4 4 1 2 2 3 2 4 3 2 2 3 4 7 3 3 6 6 12 14 11 16 6 6 3 7 10
10 7 6 5 6 10 12 15 17 8 3 2 1 1 2 2 3 3 2 5 4 7 3 4 3 3 3 1 3 6 6 8 9 7 5 5 5 6 12 11 14 16 6 4 5 5 6
11 7 7 5 6 9 12 13 18 15 6 3 1 1 2 4 2 2 6 4 8 2 5 5 2 1 4 6 9 9 8 8 9 10 10 6 8 7 9 14 15 5 4 1 7 10 4
13 10 8 6 6 9 12 15 13 17 14 5 1 1 2 5 6 8 9 8 8 6 5 5 3 4 5 5 5 5 6 6 8 6 9 10 8 7 8 11 14 8 5 5 5 13 4
15 12 9 7 7 8 12 12 15 13 9 5 5 4 3 7 3 8 8 5 4 4 5 4 2 3 3 4 4 4 4 2 3 6 5 7 7 6 11 13 16 6 6 9 4 7 8
17 13 11 9 8 10 11 13 15 10 14 6 5 6 3 6 3 2 3 4 2 1 2 3 1 3 3 3 4 4 3 2 4 5 4 5 7 11 11 12 2 5 13 11 6 7 17
17 14 12 10 9 9 12 13 12 12 11 4 4 8 3 5 6 5 2 5 4 1 1 5 3 4 3 4 3 0 4 1 4 6 5 7 5 8 5 8 10 11 6 7 7 13 17
18 15 12 10 9 9 11 12 14 11 9 4 5 6 7 7 6 6 9 7 8 7 2 1 3 3 4 2 2 2 4 3 7 7 2 2 5 6 5 6 5 9 9 6 10 15 15
Wind_Direction
62 38 30 19 12 7 1 358 358 356 355 351 348 346 343 339 335 332 331 328 325 323 322 319 316 312 274 226 71 33 334 345 295 305 345 315 268 277 253 258 228 246 262 264 258 247 249
48 14 18 16 14 7 359 356 356 354 353 350 347 343 340 336 333 330 327 325 323 322 321 318 312 307 260 244 343 5 345 324 6 324 2 335 350 332 299 274 254 6 297 272 253 245 240
68 17 13 3 4 1 359 357 354 351 349 348 346 342 339 337 333 332 330 325 323 322 328 314 303 281 246 57 347 353 10 25 10 358 322 25 351 286 351 260 342 288 290 266 232 236 249
84 31 8 3 352 350 351 355 352 350 348 346 344 341 340 337 332 331 326 317 313 309 309 298 296 270 63 17 354 41 323 53 48 43 69 15 330 300 274 342 237 262 248 271 92 167 172
102 32 7 353 350 348 346 347 349 348 346 344 341 341 340 336 333 331 323 310 292 291 274 274 252 280 96 154 217 8 339 329 14 47 43 313 264 281 193 235 257 200 267 250 233 188 174
131 76 348 350 349 346 344 347 346 345 343 342 340 339 337 335 331 330 324 287 279 247 230 247 239 212 145 68 29 335 20 303 288 268 238 228 229 245 225 221 244 295 248 262 255 161 217
327 354 341 347 350 344 343 343 344 344 345 344 340 338 335 332 329 334 299 226 213 164 42 28 1 343 55 31 230 55 347 262 247 242 253 175 248 235 253 246 296 290 279 273 275 283 247
336 329 338 348 346 345 345 341 342 344 345 344 339 337 334 331 325 304 283 52 46 354 102 68 4 74 23 343 256 83 304 275 255 271 225 219 245 27 10 280 253 251 265 268 274 281 258
296 323 342 339 343 342 342 341 339 341 345 343 338 334 332 330 300 330 69 55 343 304 271 102 39 6 12 314 27 40 313 324 298 278 259 282 344 113 240 252 251 248 261 277 284 299 265
275 325 334 339 342 341 340 340 340 339 341 339 336 336 336 329 256 12 55 4 335 298 229 109 144 92 205 312 174 357 11 329 241 312 319 278 45 259 254 253 263 276 298 288 273 284 272
220 333 332 338 340 340 339 340 339 338 339 338 336 337 339 360 79 55 17 331 291 237 302 97 105 29 331 310 356 107 18 246 293 303 288 293 286 264 264 270 300 288 346 294 283 276 283
196 315 339 338 336 339 339 340 337 336 337 338 336 336 330 265 70 40 325 240 227 226 246 134 22 347 283 49 64 72 216 213 302 285 245 268 285 271 272 310 289 299 284 272 260 266 257
179 257 336 336 336 337 337 337 337 337 337 334 331 337 24 349 21 337 291 226 237 228 119 97 23 358 331 333 51 16 70 50 14 331 282 306 268 215 301 285 235 250 266 281 250 209 245
190 291 337 335 337 336 337 334 337 336 337 335 328 290 56 54 325 284 228 235 246 22 85 94 302 293 282 348 112 352 217 212 54 334 299 313 274 10 22 351 322 293 276 263 278 278 286
188 202 314 332 339 337 339 336 336 337 335 335 302 195 196 22 312 241 238 240 333 22 18 340 243 248 158 172 306 284 45 31 42 15 329 330 237 95 356 332 306 309 262 325 287 279 272
182 209 293 331 340 340 340 338 337 337 332 326 272 253 115 342 176 231 254 249 166 46 323 250 268 281 274 86 299 309 159 49 36 25 338 53 292 103 20 329 262 359 341 309 278 271 267
181 205 299 330 342 346 343 339 337 337 329 295 236 252 71 344 248 221 251 94 128 76 330 329 318 280 327 326 310 292 57 78 22 15 345 344 245 265 325 310 335 320 312 321 325 278 283
171 185 304 329 342 347 348 341 336 334 338 270 263 242 32 284 218 270 185 48 347 95 37 14 358 349 300 3 284 283 333 43 47 8 341 28 304 288 296 290 301 47 37 333 288 300 304
158 165 350 335 342 347 354 345 339 324 305 270 252 329 96 266 236 177 128 90 54 106 47 34 77 8 348 8 289 269 166 136 43 5 11 15 244 305 293 108 163 359 327 318 296 283 271
146 140 11 343 348 354 356 351 348 330 293 262 253 244 108 75 16 279 164 149 120 41 81 62 106 109 201 210 258 259 206 123 317 313 155 224 257 256 275 305 312 305 310 304 304 290 307
144 124 49 0 2 359 358 356 358 328 251 271 358 118 353 140 94 89 48 127 152 148 85 114 116 89 298 238 238 244 224 271 118 136 182 303 271 285 286 293 290 287 297 325 302 325 293
138 126 89 26 15 11 6 4 10 335 250 126 220 168 127 79 74 142 272 98 171 122 205 155 225 149 210 259 285 296 257 208 275 175 261 245 277 286 277 277 280 303 290 299 319 339 298
146 122 105 63 31 24 22 17 18 29 277 123 148 110 252 149 126 228 62 120 135 137 71 77 124 189 212 342 323 310 296 279 271 262 269 250 267 282 291 314 305 281 61 296 319 288 303
134 144 121 88 63 46 36 29 30 36 45 73 351 130 179 121 171 111 134 120 129 104 136 128 131 269 60 305 283 248 254 254 248 241 232 264 253 271 282 287 280 97 92 63 333 290 221
146 151 128 108 77 61 51 37 35 42 52 87 33 294 119 112 110 122 134 125 124 120 101 140 91 28 318 284 267 254 188 203 197 211 207 224 276 287 276 284 297 156 53 12 349 315 64
158 153 139 118 88 65 60 52 43 49 59 77 48 311 71 122 96 134 134 155 147 145 142 123 123 331 277 267 241 250 246 359 225 174 209 215 239 270 289 292 285 73 4 332 10 257 13
153 149 144 118 100 74 74 61 47 49 58 77 58 6 79 102 83 159 101 131 81 74 83 138 124 207 245 245 245 256 258 31 274 260 231 238 256 258 271 287 335 42 324 301 264 334 331
146 145 129 124 106 83 73 63 53 43 48 62 70 23 43 82 78 58 66 110 111 273 211 100 200 190 215 245 293 15 269 129 269 284 306 297 304 292 284 292 295 8 336 347 346 322 325
151 142 141 124 104 91 81 72 56 48 50 51 70 32 37 68 85 73 66 37 33 25 27 100 32 51 30 293 223 319 264 259 291 286 83 247 352 325 317 350 42 352 325 48 335 324 320